Weather History for Marion, IN

Change the Weather History Date:

Wednesday, August 7, 2013

  Actual Average (KMIE) Record (KMIE)
Temperature  
Mean Temperature 74 °F 73 °F  
Max Temperature 81 °F 83 °F 94 °F (1968)
Min Temperature 66 °F 63 °F 47 °F (1993)
Degree Days  
Heating Degree Days 0 0  
Month to date heating degree days 0  
Since 1 June heating degree days 27  
Since 1 July heating degree days 3  
Cooling Degree Days 8 8  
Month to date cooling degree days 58  
Year to date cooling degree days 651  
Since 1 June cooling degree days 568  
Growing Degree Days 24 (Base 50)    
Moisture  
Dew Point 69 °F    
Average Humidity 86    
Maximum Humidity 96    
Minimum Humidity 67    
Precipitation  
Precipitation 0.00 in 0.11 in 1.62 in (1980)
Month to date precipitation 0.78  
Year to date precipitation 25.39  
Sea Level Pressure  
Sea Level Pressure 29.91 in    
Wind  
Wind Speed 5 mph (SSW)    
Max Wind Speed 15 mph    
Max Gust Speed 16 mph    
Visibility 5 miles    
Events      
T = Trace of Precipitation, MM = Missing Value Source: NWS Daily Summary

Daily Weather History Graph

Daily Weather History Graph

Search for Another Location

Airport:

Trip Planner

Search our weather history database for the weather conditions in past years. The results will help you decide how hot, cold, wet, or windy it might be!

Date:

Astronomy

Aug. 07, 2013 Rise Set
Actual Time 6:45 AM EDT 8:50 PM EDT
Civil Twilight 6:15 AM EDT 9:20 PM EDT
Nautical Twilight 5:39 AM EDT 9:56 PM EDT
Astronomical Twilight 4:59 AM EDT 10:36 PM EDT
Moon 7:34 AM EDT (8/7) 8:56 PM EDT (8/7)
Length of Visible Light 15h 04m
Length of Day
14h 04m
New Moon, 1% of the Moon is Illuminated
Aug 7
New Moon
Aug 14
First Quarter
Aug 20
Full
Aug 28
Last Quarter
Sep 5
New

Hourly Weather History & Observations

Time (EDT) Temp. Heat Index Dew Point Humidity Pressure Visibility Wind Dir Wind Speed Gust Speed Precip Events Conditions
12:15 AM 67.6 °F - 65.5 °F 93% 29.94 in 5.0 mi Calm Calm - N/A   Clear
12:35 AM 66.9 °F - 65.1 °F 94% 29.94 in 3.0 mi Calm Calm - N/A   Scattered Clouds
12:55 AM 66.9 °F - 65.3 °F 95% 29.94 in 3.0 mi South 3.5 mph - N/A   Mostly Cloudy
1:15 AM 66.9 °F - 65.5 °F 95% 29.93 in 3.0 mi South 4.6 mph - N/A   Clear
1:35 AM 67.3 °F - 65.7 °F 95% 29.93 in 3.0 mi Calm Calm - N/A   Clear
1:55 AM 67.5 °F - 66.0 °F 95% 29.93 in 4.0 mi South 3.5 mph - N/A   Scattered Clouds
2:15 AM 67.8 °F - 66.4 °F 95% 29.93 in 4.0 mi Calm Calm - N/A   Mostly Cloudy
2:35 AM 68.0 °F - 66.4 °F 95% 29.93 in 4.0 mi South 3.5 mph - N/A   Mostly Cloudy
2:55 AM 68.0 °F - 66.6 °F 95% 29.92 in 4.0 mi South 4.6 mph - N/A   Scattered Clouds
3:15 AM 68.5 °F - 67.1 °F 95% 29.92 in 4.0 mi South 4.6 mph - N/A   Clear
3:35 AM 68.9 °F - 67.3 °F 95% 29.91 in 4.0 mi South 4.6 mph - N/A   Scattered Clouds
3:55 AM 69.1 °F - 67.6 °F 95% 29.91 in 4.0 mi SSW 5.8 mph - N/A   Mostly Cloudy
4:15 AM 69.8 °F - 68.0 °F 94% 29.91 in 3.0 mi SSW 5.8 mph - N/A   Overcast
4:35 AM 70.0 °F - 68.4 °F 95% 29.91 in 3.0 mi SSW 5.8 mph - N/A   Overcast
4:55 AM 70.2 °F - 68.5 °F 95% 29.91 in 3.0 mi SSW 5.8 mph - N/A   Overcast
5:15 AM 69.8 °F - 68.4 °F 95% 29.90 in 3.0 mi SSW 5.8 mph - N/A   Mostly Cloudy
5:35 AM 69.8 °F - 68.2 °F 95% 29.89 in 3.0 mi South 5.8 mph - N/A   Clear
5:55 AM 69.8 °F - 68.2 °F 95% 29.89 in 2.5 mi SSW 6.9 mph - N/A   Clear
6:15 AM 69.6 °F - 68.2 °F 95% 29.89 in 2.5 mi South 5.8 mph - N/A   Scattered Clouds
6:35 AM 69.1 °F - 67.6 °F 95% 29.91 in 1.8 mi SSW 4.6 mph - N/A   Scattered Clouds
6:55 AM 68.7 °F - 67.5 °F 96% 29.90 in 1.2 mi SSW 5.8 mph - N/A   Scattered Clouds
7:15 AM 69.1 °F - 68.0 °F 96% 29.90 in 1.0 mi SSW 6.9 mph - N/A   Overcast
7:35 AM 69.4 °F - 68.4 °F 96% 29.90 in 1.2 mi SSW 6.9 mph - N/A   Overcast
7:55 AM 70.0 °F - 68.9 °F 96% 29.91 in 1.2 mi SSW 8.1 mph - N/A   Overcast
8:15 AM 70.3 °F - 69.3 °F 96% 29.92 in 1.5 mi SSW 8.1 mph - N/A   Mostly Cloudy
8:35 AM 71.1 °F - 69.8 °F 96% 29.92 in 2.0 mi SSW 8.1 mph - N/A   Scattered Clouds
8:55 AM 71.4 °F - 70.2 °F 96% 29.92 in 2.5 mi SSW 9.2 mph - N/A   Scattered Clouds
9:15 AM 72.5 °F - 70.7 °F 94% 29.92 in 4.0 mi SSW 10.4 mph - N/A   Clear
9:35 AM 73.9 °F - 71.1 °F 91% 29.93 in 4.0 mi SW 12.7 mph - N/A   Clear
9:55 AM 74.7 °F - 71.2 °F 89% 29.93 in 7.0 mi SSW 11.5 mph - N/A   Scattered Clouds
10:15 AM 74.8 °F - 71.1 °F 88% 29.93 in 5.0 mi SSW 15.0 mph - N/A   Mostly Cloudy
10:35 AM 74.5 °F - 70.7 °F 88% 29.93 in 5.0 mi SSW 11.5 mph 16.1 mph N/A   Mostly Cloudy
10:55 AM 75.7 °F - 70.9 °F 85% 29.94 in 4.0 mi SSW 11.5 mph 16.1 mph N/A   Haze
11:15 AM 75.7 °F - 70.3 °F 83% 29.94 in 5.0 mi SSW 11.5 mph - N/A   Haze
11:35 AM 75.2 °F - 70.2 °F 84% 29.94 in 5.0 mi SSW 10.4 mph - N/A   Haze
11:55 AM 75.0 °F - 70.0 °F 84% 29.94 in 7.0 mi SSW 8.1 mph - N/A   Overcast
12:15 PM 74.3 °F - 70.0 °F 86% 29.94 in 5.0 mi SSW 10.4 mph - N/A   Overcast
12:35 PM 75.6 °F - 70.7 °F 85% 29.94 in 7.0 mi SSW 10.4 mph - N/A   Mostly Cloudy
12:55 PM 76.5 °F - 70.7 °F 82% 29.93 in 5.0 mi SSW 8.1 mph - N/A   Haze
1:15 PM 76.8 °F - 70.7 °F 81% 29.93 in 7.0 mi SW 10.4 mph - N/A   Overcast
1:35 PM 77.4 °F - 70.3 °F 79% 29.92 in 7.0 mi SW 6.9 mph - N/A   Overcast
1:55 PM 78.3 °F - 70.3 °F 77% 29.92 in 7.0 mi SW 9.2 mph - N/A   Overcast
2:15 PM 78.6 °F - 70.2 °F 75% 29.91 in 5.0 mi SW 6.9 mph - N/A   Haze
2:35 PM 80.1 °F 83.4 °F 70.5 °F 73% 29.90 in 10.0 mi SSW 9.2 mph - N/A   Mostly Cloudy
2:55 PM 79.9 °F - 70.0 °F 72% 29.90 in 7.0 mi SW 6.9 mph - N/A   Mostly Cloudy
3:15 PM 80.2 °F 83.6 °F 70.5 °F 72% 29.90 in 7.0 mi SW 8.1 mph - N/A   Mostly Cloudy
3:35 PM 80.6 °F 83.9 °F 70.2 °F 70% 29.89 in 7.0 mi SSW 5.8 mph - N/A   Mostly Cloudy
3:55 PM 80.4 °F 83.8 °F 70.2 °F 71% 29.89 in 7.0 mi SSW 9.2 mph - N/A   Mostly Cloudy
4:15 PM 80.4 °F 83.6 °F 69.8 °F 70% 29.89 in 7.0 mi SW 8.1 mph - N/A   Mostly Cloudy
4:35 PM 80.6 °F 83.8 °F 69.4 °F 69% 29.89 in 10.0 mi SSW 8.1 mph - N/A   Mostly Cloudy
4:55 PM 79.9 °F - 69.3 °F 70% 29.90 in 7.0 mi SW 6.9 mph - N/A   Overcast
5:15 PM 80.4 °F 83.6 °F 69.8 °F 70% 29.89 in 10.0 mi WSW 6.9 mph - N/A   Overcast
5:35 PM 80.4 °F 83.5 °F 69.6 °F 69% 29.89 in 7.0 mi SW 5.8 mph - N/A   Overcast
5:55 PM 80.6 °F 83.6 °F 69.1 °F 68% 29.89 in 10.0 mi SSW 6.9 mph - N/A   Scattered Clouds
6:15 PM 81.3 °F 84.6 °F 69.6 °F 67% 29.89 in 10.0 mi WSW 6.9 mph - N/A   Clear
6:35 PM 79.9 °F - 70.0 °F 72% 29.88 in 7.0 mi SW 5.8 mph - N/A   Clear
6:55 PM 79.7 °F - 70.2 °F 73% 29.89 in 7.0 mi WSW 4.6 mph - N/A   Clear
7:15 PM 78.6 °F - 70.7 °F 77% 29.89 in 7.0 mi SW 4.6 mph - N/A   Mostly Cloudy
7:35 PM 77.9 °F - 70.9 °F 79% 29.90 in 7.0 mi SW 3.5 mph - N/A   Scattered Clouds
7:55 PM 77.2 °F - 71.1 °F 81% 29.89 in 7.0 mi South 3.5 mph - N/A   Scattered Clouds
8:15 PM 76.6 °F - 70.9 °F 82% 29.89 in 7.0 mi SSE 3.5 mph - N/A   Scattered Clouds
8:35 PM 75.7 °F - 70.9 °F 85% 29.89 in 7.0 mi South 3.5 mph - N/A   Clear
8:55 PM 74.5 °F - 70.9 °F 88% 29.89 in 7.0 mi SSW 3.5 mph - N/A   Clear
9:15 PM 73.2 °F - 70.3 °F 91% 29.90 in 7.0 mi Calm Calm - N/A   Clear
9:35 PM 73.4 °F - 70.3 °F 90% 29.90 in 7.0 mi Calm Calm - N/A   Clear
9:55 PM 72.5 °F - 70.2 °F 92% 29.92 in 7.0 mi Calm Calm - N/A   Scattered Clouds
10:15 PM 72.7 °F - 70.0 °F 91% 29.92 in 7.0 mi Calm Calm - N/A   Mostly Cloudy
10:35 PM 72.7 °F - 70.2 °F 92% 29.93 in 7.0 mi Calm Calm - N/A   Overcast
10:55 PM 73.2 °F - 70.7 °F 92% 29.93 in 7.0 mi SSW 3.5 mph - N/A   Overcast
11:15 PM 73.0 °F - 70.3 °F 91% 29.93 in 5.0 mi Calm Calm - N/A   Overcast
11:35 PM 72.9 °F - 70.3 °F 92% 29.94 in 7.0 mi Calm Calm - N/A   Overcast
11:55 PM 72.7 °F - 70.0 °F 91% 29.93 in 5.0 mi WSW 5.8 mph - N/A   Overcast